This is the latest recevied weather packets stored in our database for station/object KK7KHO. If no packets are shown the sender has not sent any weather packets the latest 10 day(s).
| Time | Temp. | Humidity | Pressure | Rain* | Wind** | Luminosity | Snow |
|---|---|---|---|---|---|---|---|
| 1777675351 | 19.44° C | 68% | 1014.4 hPa | 0 mm | - | 304 W/m² | - |
| 1777675047 | 19.44° C | 69% | 1014.6 hPa | 0 mm | - | 360 W/m² | - |
| 1777674744 | 20.56° C | 68% | 1014.6 hPa | 0 mm | - | 343 W/m² | - |
| 1777674435 | 20° C | 69% | 1014.6 hPa | 0 mm | - | 277 W/m² | - |
| 1777674133 | 21.11° C | 67% | 1014.7 hPa | 0 mm | - | 271 W/m² | - |
| 1777673829 | 21.11° C | 66% | 1014.7 hPa | 0 mm | - | 615 W/m² | - |
| 1777673526 | 20.56° C | 66% | 1014.6 hPa | 0 mm | - | 586 W/m² | - |
| 1777673223 | 21.11° C | 65% | 1014.7 hPa | 0 mm | - | 589 W/m² | - |
| 1777672920 | 21.11° C | 66% | 1014.9 hPa | 0 mm | - | 577 W/m² | - |
| 1777672617 | 21.11° C | 65% | 1014.7 hPa | 0 mm | - | 595 W/m² | - |
| 1777672312 | 20.56° C | 67% | 1014.8 hPa | 0 mm | - | 620 W/m² | - |
| 1777672007 | 20.56° C | 67% | 1015 hPa | 0 mm | - | 579 W/m² | - |
| 1777671703 | 20.56° C | 68% | 1015 hPa | 0 mm | - | 600 W/m² | - |
| 1777671400 | 20° C | 69% | 1014.8 hPa | 0 mm | - | 546 W/m² | - |
| 1777671096 | 20° C | 71% | 1015 hPa | 0 mm | - | 538 W/m² | - |
| 1777670793 | 20° C | 71% | 1015 hPa | 0 mm | - | 493 W/m² | - |
| 1777670490 | 20.56° C | 64% | 1015 hPa | 0 mm | - | 612 W/m² | - |
| 1777670186 | 20° C | 65% | 1015 hPa | 0 mm | - | 633 W/m² | - |
| 1777669884 | 20° C | 67% | 1014.9 hPa | 0 mm | - | 597 W/m² | - |
| 1777669581 | 19.44° C | 66% | 1015.1 hPa | 0 mm | - | 589 W/m² | - |
| 1777669277 | 19.44° C | 67% | 1015.2 hPa | 0 mm | - | 562 W/m² | - |
| 1777668974 | 19.44° C | 69% | 1015.3 hPa | 0 mm | - | 610 W/m² | - |
| 1777668671 | 19.44° C | 68% | 1015.4 hPa | 0 mm | - | 634 W/m² | - |
| 1777668368 | 18.89° C | 70% | 1015.2 hPa | 0 mm | - | 589 W/m² | - |
| 1777668064 | 20.56° C | 69% | 1015.2 hPa | 0 mm | - | 540 W/m² | - |
* Rain latest hour (hover to see other rain measurements)
** Current wind speed in m/s (hover to see current wind gust speed)